[Iaude] MPEC T122: 2016 TS54 [a=2.24,e=0.65,i=6.4,H=27.8]

mpec at si.edu mpec at si.edu
Tue Oct 11 22:25:43 EDT 2016


M.P.E.C. 2016-T122                               Issued 2016 Oct. 12, 02:22 UT
 
     The Minor Planet Electronic Circulars contain information on unusual
         minor planets and routine data on comets.  They are published
    on behalf of Division F of the International Astronomical Union by the
          Minor Planet Center, Smithsonian Astrophysical Observatory,
                          Cambridge, MA 02138, U.S.A.

             Prepared using the Tamkin Foundation Computer Network

                              MPC at CFA.HARVARD.EDU
            URL http://www.minorplanetcenter.net/    ISSN 1523-6714


                                   2016 TS54
 
Observations:
     K16T54S* C2016 10 11.18888 01 32 11.26 +23 56 52.9          19.0 VqET122G96
     K16T54S  C2016 10 11.19397 01 32 13.70 +23 57 12.4          18.7 VqET122G96
     K16T54S  C2016 10 11.19906 01 32 16.06 +23 57 30.9          18.2 VqET122G96
     K16T54S  C2016 10 11.20427 01 32 18.42 +23 57 49.6          18.5 VqET122G96
     K16T54S  C2016 10 11.25039 01 32 36.78 +24 00 16.2          17.9 VqET122703
     K16T54S  C2016 10 11.25556 01 32 38.70 +24 00 31.9          18.9 VqET122703
     K16T54S  C2016 10 11.26073 01 32 40.43 +24 00 45.1          18.8 VqET122703
     K16T54S  C2016 10 11.27004 01 32 43.72 +24 01 08.6          18.9 VqET122G96
     K16T54S  C2016 10 11.27089 01 32 44.78 +24 01 15.6          18.5 RoET122691
     K16T54S  C2016 10 11.27121 01 32 44.09 +24 01 11.2          18.6 VqET122G96
     K16T54S  C2016 10 11.27237 01 32 44.48 +24 01 14.3          19.0 VqET122G96
     K16T54S  C2016 10 11.27352 01 32 44.86 +24 01 17.1          18.9 VqET122G96
     K16T54S  C2016 10 11.28274 01 32 48.61 +24 01 45.4                oET122691
     K16T54S  C2016 10 11.29448 01 32 52.35 +24 02 10.7                oET122691
     K16T54S  C2016 10 11.34540 01 33 06.50 +24 03 34.0          19.2 VqET122G96
     K16T54S  C2016 10 11.34659 01 33 06.83 +24 03 35.9          18.9 VqET122G96
     K16T54S  C2016 10 11.34782 01 33 07.19 +24 03 37.6          19.1 VqET122G96
     K16T54S  C2016 10 11.34901 01 33 07.52 +24 03 39.2          19.3 VqET122G96
     K16T54S  C2016 10 11.38085 01 33 17.09 +24 04 23.8          19.3 VoET122691
     K16T54S  C2016 10 11.39666 01 33 21.62 +24 04 37.7          19.4 VoET122691
     K16T54S  C2016 10 11.41241 01 33 26.24 +24 04 49.1          19.7 VoET122691
     K16T54S KC2016 10 11.41643 01 33 27.43 +24 04 51.6          18.7 RoET122291
     K16T54S KC2016 10 11.41867 01 33 28.09 +24 04 53.0          18.3 RoET122291
     K16T54S KC2016 10 11.42092 01 33 28.77 +24 04 54.2          18.7 RoET122291
     K16T54S  C2016 10 11.45503 01 33 39.23 +24 05 00.2          19.6 VqET122703
     K16T54S  C2016 10 11.46077 01 33 41.07 +24 05 02.4          18.8 VqET122703
     K16T54S  C2016 10 11.46366 01 33 41.94 +24 05 02.7          19.2 VqET122703
     K16T54S KC2016 10 11.98307 01 37 13.64 +24 13 12.0          19.4 RqET122203
     K16T54S KC2016 10 12.00172 01 37 15.08 +24 13 24.7          19.7 RqET122203
 
Observer details:
203 GiaGa Observatory.  Observers S. Foglia, G. Galli.  Measurer G. Galli.
    0.28-m f/6.8 Schmidt-Cassegrain + CCD.
291 LPL/Spacewatch II.  Observer R. S. McMillan.  1.8-m f/2.7 reflector + CCD.
691 Steward Observatory, Kitt Peak.  Observer R. S. McMillan.  0.9-m f/3
    reflector + CCD.
703 Catalina Sky Survey.  Observer R. A. Kowalski.  Measurers
    E. J. Christensen, D. C. Fuls, A. R. Gibbs, A. D. Grauer, J. A. Johnson,
    R. A. Kowalski, S. M. Larson, G. J. Leonard, R. G. Matheny, R. L. Seaman,
    F. C. Shelly.  0.68-m Schmidt + CCD.
G96 Mt. Lemmon Survey.  Observer R. G. Matheny.  Measurers E. J. Christensen,
    D. C. Fuls, A. R. Gibbs, A. D. Grauer, J. A. Johnson, R. A. Kowalski,
    S. M. Larson, G. J. Leonard, R. G. Matheny, R. L. Seaman, F. C. Shelly.
    1.5-m reflector + 10K CCD.
 
Orbital elements:
2016 TS54                                                Earth MOID = 0.0002 AU
Epoch 2016 July 31.0 TT = JDT 2457600.5                 MPC
M 351.12610              (2000.0)            P               Q
n   0.29353510     Peri.  297.05962     +0.69387701     +0.71934342
a   2.2423119      Node    17.00951     -0.61447656     +0.61527990
e   0.6504295      Incl.    6.44956     -0.37543743     +0.32245263
P   3.36           H   27.8           G   0.15           U   6
Residuals in seconds of arc
161011 G96  0.1+  0.1+    161011 G96  0.1+  0.1+    161011 691  0.2+  0.1+
161011 G96  0.2+  0.4+    161011 G96  0.1+  0.1+    161011 291  0.1+  0.1+
161011 G96  0.1+  0.2+    161011 691  0.0   0.4+    161011 291  0.0   0.2+
161011 G96  0.1+  0.1+    161011 691  0.9+  0.5-    161011 291  0.0   0.1+
161011 703  1.0-  0.6-    161011 G96  0.1+  0.1-    161011 703  1.1+  0.1-
161011 703  0.1+  0.8+    161011 G96  0.0   0.2+    161011 703  0.2+  0.5+
161011 703  0.9-  0.1+    161011 G96  0.1+  0.2+    161011 703  1.1-  0.2+
161011 G96  0.3+  0.1+    161011 G96  0.0   0.1+    161011 203  0.0   0.2-
161011 691  0.2+  0.8-    161011 691  0.3-  0.2+    161012 203  0.0   0.1-
161011 G96  0.0   0.2-    161011 691  0.1-  0.1+

Ephemeris:
2016 TS54                a,e,i = 2.24, 0.65, 6                   q = 0.7838
Date    TT    R. A. (2000) Decl.     Delta      r     Elong.  Phase     V
2016 09 12    13 25 02.0 -21 43 36   0.2847  0.8088    39.9   127.1    30.0
...
2016 09 27    13 34 27.7 -23 44 40   0.1282  0.8927    29.3   146.7    30.9
...
2016 10 05    13 37 28.2 -24 13 45   0.04987 0.9544    23.4   155.4    30.8
...
2016 10 11    01 28 32.2 +23 52 00   0.0078881.0058   162.3    17.6    18.2
2016 10 12    01 37 17.2 +24 16 24   0.01748 1.0146   161.9    17.8    20.0
2016 10 13    01 39 50.4 +24 22 43   0.02709 1.0235   162.2    17.3    20.9
...
2016 10 19    01 42 51.6 +24 23 02   0.08515 1.0786   165.5    13.4    23.4
...
2016 10 27    01 43 23.7 +24 04 22   0.1650  1.1554   167.5    10.7    24.9
...
2016 11 11    01 45 55.5 +23 17 57   0.3289  1.3047   160.5    14.7    26.8

A. U. Tomatic                (C) Copyright 2016 MPC           M.P.E.C. 2016-T122




More information about the Iaude mailing list